| time (UTC) | temp C | wind direction | speed KPH | gust KPH | rain 1hr cm | rain 24hr cm | rain mn cm | humidity % | barometer mb |
| 20260903201532 | 37 | 185 | 4.8 | 12.9 | 0.00 | 0.00 | 0.00 | 25 | 1012.5 |
| 20260903200027 | 37 | 163 | 8.0 | 14.5 | 0.00 | 0.00 | 0.00 | 24 | 1012.6 |
| 20260903194526 | 36 | 112 | 6.4 | 14.5 | 0.00 | 0.00 | 0.00 | 25 | 1012.9 |
| 20260903193026 | 36 | 209 | 4.8 | 14.5 | 0.00 | 0.00 | 0.00 | 27 | 1013.0 |
| 20260903191509 | 36 | 213 | 4.8 | 11.3 | 0.00 | 0.00 | 0.00 | 28 | 1013.0 |
| 20260903190007 | 36 | 191 | 3.2 | 12.9 | 0.00 | 0.00 | 0.00 | 29 | 1013.2 |
| 20260903184511 | 36 | 196 | 3.2 | 6.4 | 0.00 | 0.00 | 0.00 | 26 | 1013.4 |
| 20260903183003 | 36 | 24 | 0.0 | 9.7 | 0.00 | 0.00 | 0.00 | 31 | 1013.5 |
| 20260903181502 | 35 | 12 | 0.0 | 8.0 | 0.00 | 0.00 | 0.00 | 34 | 1013.8 |
| 20260903180007 | 35 | 302 | 1.6 | 8.0 | 0.00 | 0.00 | 0.00 | 33 | 1013.9 |
| 20260903174517 | 34 | 360 | 4.8 | 9.7 | 0.00 | 0.00 | 0.00 | 35 | 1014.1 |
| 20260903173018 | 33 | 155 | 3.2 | 11.3 | 0.00 | 0.00 | 0.00 | 34 | 1014.1 |
| 20260903171504 | 32 | 292 | 3.2 | 12.9 | 0.00 | 0.00 | 0.00 | 38 | 1014.3 |
| 20260903170005 | 32 | 240 | 6.4 | 12.9 | 0.00 | 0.00 | 0.00 | 39 | 1014.3 |
| 20260903164510 | 31 | 202 | 6.4 | 14.5 | 0.00 | 0.00 | 0.00 | 41 | 1014.4 |
| 20260903163013 | 30 | 360 | 3.2 | 12.9 | 0.00 | 0.00 | 0.00 | 43 | 1014.3 |
| 20260903161504 | 30 | 184 | 3.2 | 12.9 | 0.00 | 0.00 | 0.00 | 44 | 1014.2 |
| 20260903160008 | 29 | 208 | 4.8 | 9.7 | 0.00 | 0.00 | 0.00 | 47 | 1014.1 |
| 20260903154513 | 29 | 217 | 4.8 | 14.5 | 0.00 | 0.00 | 0.00 | 46 | 1014.4 |
| 20260903153013 | 28 | 239 | 4.8 | 12.9 | 0.00 | 0.00 | 0.00 | 47 | 1014.2 |
| 20260903151523 | 27 | 248 | 4.8 | 12.9 | 0.00 | 0.00 | 0.00 | 50 | 1014.1 |
| 20260903150009 | 27 | 258 | 8.0 | 20.9 | 0.00 | 0.00 | 0.00 | 52 | 1014.0 |
| 20260903144507 | 26 | 360 | 4.8 | 17.7 | 0.00 | 0.00 | 0.00 | 55 | 1014.0 |
| 20260903143020 | 25 | 360 | 4.8 | 16.1 | 0.00 | 0.00 | 0.00 | 55 | 1014.2 |
| 20260903141517 | 26 | 360 | 4.8 | 17.7 | 0.00 | 0.00 | 0.00 | 54 | 1014.4 |
| 20260903140028 | 25 | 202 | 6.4 | 19.3 | 0.00 | 0.00 | 0.00 | 59 | 1014.2 |
| 20260903134504 | 24 | 360 | 6.4 | 16.1 | 0.00 | 0.00 | 0.00 | 63 | 1014.1 |
| 20260903133012 | 23 | 171 | 4.8 | 16.1 | 0.00 | 0.00 | 0.00 | 68 | 1014.0 |
| 20260903131515 | 22 | 360 | 6.4 | 14.5 | 0.00 | 0.00 | 0.00 | 68 | 1014.0 |
| 20260903130022 | 22 | 194 | 6.4 | 17.7 | 0.00 | 0.00 | 0.00 | 68 | 1013.8 |
| 20260903124529 | 22 | 360 | 6.4 | 16.1 | 0.00 | 0.00 | 0.00 | 71 | 1013.7 |
| 20260903123006 | 21 | 360 | 3.2 | 16.1 | 0.00 | 0.00 | 0.00 | 71 | 1013.7 |
| 20260903121514 | 21 | 234 | 4.8 | 14.5 | 0.00 | 0.00 | 0.00 | 71 | 1013.6 |
| 20260903120020 | 21 | 215 | 3.2 | 12.9 | 0.00 | 0.00 | 0.00 | 71 | 1013.7 |
| 20260903114528 | 21 | 360 | 4.8 | 11.3 | 0.00 | 0.00 | 0.00 | 70 | 1013.8 |
| 20260903113035 | 22 | 195 | 6.4 | 14.5 | 0.00 | 0.00 | 0.00 | 69 | 1013.5 |
| 20260903111510 | 22 | 360 | 4.8 | 16.1 | 0.00 | 0.00 | 0.00 | 68 | 1013.4 |
| 20260903110019 | 22 | 360 | 6.4 | 14.5 | 0.00 | 0.00 | 0.00 | 67 | 1013.4 |
| 20260903104527 | 23 | 196 | 6.4 | 16.1 | 0.00 | 0.00 | 0.00 | 65 | 1013.4 |
| 20260903103030 | 23 | 173 | 6.4 | 19.3 | 0.00 | 0.00 | 0.00 | 63 | 1013.5 |
| 20260903101515 | 23 | 228 | 9.7 | 17.7 | 0.00 | 0.00 | 0.00 | 62 | 1013.5 |
| 20260903100018 | 23 | 360 | 8.0 | 17.7 | 0.00 | 0.00 | 0.00 | 61 | 1013.6 |
| 20260903094503 | 23 | 360 | 8.0 | 19.3 | 0.00 | 0.00 | 0.00 | 60 | 1013.6 |
| 20260903093004 | 23 | 360 | 8.0 | 17.7 | 0.00 | 0.00 | 0.00 | 59 | 1013.7 |
| 20260903091508 | 24 | 360 | 6.4 | 17.7 | 0.00 | 0.00 | 0.00 | 58 | 1013.7 |
| 20260903090027 | 24 | 172 | 8.0 | 17.7 | 0.00 | 0.00 | 0.00 | 57 | 1013.8 |
| 20260903084524 | 25 | 161 | 6.4 | 19.3 | 0.00 | 0.00 | 0.00 | 56 | 1013.8 |
| 20260903083005 | 25 | 360 | 8.0 | 17.7 | 0.00 | 0.00 | 0.00 | 55 | 1013.9 |
| 20260903081507 | 25 | 360 | 6.4 | 19.3 | 0.00 | 0.00 | 0.00 | 55 | 1013.8 |
| 20260903080019 | 25 | 360 | 6.4 | 17.7 | 0.00 | 0.00 | 0.00 | 54 | 1013.8 |
| 20260903074521 | 25 | 360 | 8.0 | 19.3 | 0.00 | 0.00 | 0.00 | 54 | 1013.8 |
| 20260903073032 | 25 | 360 | 8.0 | 17.7 | 0.00 | 0.00 | 0.00 | 54 | 1013.8 |
| 20260903071511 | 25 | 360 | 8.0 | 17.7 | 0.00 | 0.00 | 0.00 | 55 | 1013.8 |
| 20260903070012 | 24 | 360 | 8.0 | 16.1 | 0.00 | 0.00 | 0.00 | 57 | 1013.8 |
| 20260903064516 | 24 | 360 | 8.0 | 16.1 | 0.00 | 0.00 | 0.00 | 58 | 1013.8 |
| 20260903063023 | 24 | 182 | 8.0 | 14.5 | 0.00 | 0.00 | 0.00 | 58 | 1013.8 |
| 20260903061541 | 24 | 360 | 6.4 | 16.1 | 0.00 | 0.00 | 0.00 | 59 | 1013.8 |
| 20260903060013 | 24 | 179 | 6.4 | 12.9 | 0.00 | 0.00 | 0.00 | 60 | 1013.7 |
| 20260903054514 | 24 | 360 | 6.4 | 12.9 | 0.00 | 0.00 | 0.00 | 58 | 1013.6 |
| 20260903053024 | 25 | 159 | 6.4 | 16.1 | 0.00 | 0.00 | 0.00 | 56 | 1013.5 |
| 20260903051528 | 25 | 360 | 6.4 | 14.5 | 0.00 | 0.00 | 0.00 | 56 | 1013.7 |
| 20260903050037 | 24 | 360 | 4.8 | 12.9 | 0.00 | 0.00 | 0.00 | 59 | 1013.8 |
| 20260903044516 | 24 | 360 | 4.8 | 9.7 | 0.00 | 0.00 | 0.00 | 60 | 1013.8 |
| 20260903043021 | 24 | 155 | 4.8 | 9.7 | 0.00 | 0.00 | 0.00 | 60 | 1013.7 |
| 20260903041536 | 25 | 173 | 3.2 | 8.0 | 0.00 | 0.00 | 0.00 | 58 | 1013.7 |
| 20260903040034 | 25 | 360 | 4.8 | 12.9 | 0.00 | 0.00 | 0.00 | 56 | 1013.8 |
| 20260903034542 | 26 | 175 | 3.2 | 8.0 | 0.00 | 0.00 | 0.00 | 54 | 1013.8 |
| 20260903033021 | 26 | 199 | 3.2 | 8.0 | 0.00 | 0.00 | 0.00 | 54 | 1013.8 |
| 20260903031523 | 26 | 185 | 3.2 | 8.0 | 0.00 | 0.00 | 0.00 | 53 | 1013.7 |
| 20260903030028 | 27 | 192 | 1.6 | 4.8 | 0.00 | 0.00 | 0.00 | 51 | 1013.5 |
| 20260903024533 | 28 | 360 | 3.2 | 8.0 | 0.00 | 0.00 | 0.00 | 49 | 1013.3 |
| 20260903023029 | 28 | 360 | 3.2 | 14.5 | 0.00 | 0.00 | 0.00 | 48 | 1013.2 |
| 20260903023003 | 28 | 190 | 3.2 | 14.5 | 0.00 | 0.00 | 0.00 | 48 | 1013.2 |
| 20260903021506 | 28 | 196 | 3.2 | 8.0 | 0.00 | 0.00 | 0.00 | 48 | 1013.0 |
| 20260903020003 | 28 | 360 | 3.2 | 8.0 | 0.00 | 0.00 | 0.00 | 48 | 1012.9 |
| 20260903014509 | 28 | 180 | 1.6 | 4.8 | 0.00 | 0.00 | 0.00 | 47 | 1012.7 |
| 20260903013015 | 30 | 228 | 1.6 | 8.0 | 0.00 | 0.00 | 0.00 | 44 | 1012.6 |
| 20260903011503 | 31 | 180 | 3.2 | 6.4 | 0.00 | 0.00 | 0.00 | 41 | 1012.5 |
| 20260903010007 | 32 | 360 | 3.2 | 9.7 | 0.00 | 0.00 | 0.00 | 39 | 1012.5 |
| 20260903004504 | 33 | 360 | 4.8 | 14.5 | 0.00 | 0.00 | 0.00 | 37 | 1012.5 |
| 20260903003011 | 33 | 202 | 8.0 | 19.3 | 0.00 | 0.00 | 0.00 | 35 | 1012.4 |
| 20260903001517 | 34 | 173 | 8.0 | 20.9 | 0.00 | 0.00 | 0.00 | 34 | 1012.3 |
| 20260903000004 | 35 | 148 | 6.4 | 19.3 | 0.00 | 0.00 | 0.00 | 33 | 1012.3 |
| 20260902234504 | 35 | 207 | 11.3 | 19.3 | 0.00 | 0.00 | 0.00 | 32 | 1012.2 |
| 20260902233010 | 35 | 360 | 9.7 | 17.7 | 0.00 | 0.00 | 0.00 | 32 | 1012.2 |
| 20260902231518 | 36 | 210 | 9.7 | 17.7 | 0.00 | 0.00 | 0.00 | 30 | 1012.3 |
| 20260902230004 | 36 | 360 | 1.6 | 16.1 | 0.00 | 0.00 | 0.00 | 30 | 1012.2 |
| 20260902224506 | 36 | 151 | 4.8 | 22.5 | 0.00 | 0.00 | 0.00 | 30 | 1012.3 |
| 20260902223008 | 36 | 251 | 4.8 | 12.9 | 0.00 | 0.00 | 0.00 | 30 | 1012.4 |
| 20260902221516 | 36 | 196 | 8.0 | 24.1 | 0.00 | 0.00 | 0.00 | 29 | 1012.4 |
| 20260902220016 | 37 | 360 | 4.8 | 20.9 | 0.00 | 0.00 | 0.00 | 31 | 1012.5 |
| 20260902214504 | 36 | 181 | 9.7 | 17.7 | 0.00 | 0.00 | 0.00 | 31 | 1012.5 |
| 20260902213022 | 36 | 185 | 8.0 | 20.9 | 0.00 | 0.00 | 0.00 | 32 | 1012.9 |
| 20260902211510 | 36 | 213 | 9.7 | 25.7 | 0.00 | 0.00 | 0.00 | 31 | 1013.2 |
| 20260902210026 | 36 | 210 | 9.7 | 20.9 | 0.00 | 0.00 | 0.00 | 32 | 1013.4 |
| 20260902204526 | 36 | 211 | 12.9 | 20.9 | 0.00 | 0.00 | 0.00 | 31 | 1013.5 |